Regional Weather Roundup
Issued by NWS Sioux Falls, SD

Home | Current Version | Previous Version | Text Only | Print | Product List | Glossary On
Versions: 1 2 3 4 5 6 7 8 9 10 11 12 13 14 15 16 17 18 19 20 21 22 23 24 25 26 27 28 29 30 31 32 33 34 35 36 37 38 39 40 41 42 43 44 45 46 47 48 49 50
000
ASUS43 KFSD 260010
RWRFSD

WEATHER ROUNDUP FOR SE SOUTH DAKOTA/SW MINNESOTA/NW IOWA
NATIONAL WEATHER SERVICE SIOUX FALLS SD
700 PM CDT FRI MAY 25 2018

NOTE: "FAIR" INDICATES FEW OR NO CLOUDS BELOW 12,000 FEET WITH NO
SIGNIFICANT WEATHER AND OR OBSTRUCTIONS TO VISIBILITY.


SDZ038>040-050-052>070-260100-
SOUTHEAST SOUTH DAKOTA

CITY           SKY/WX    TMP DP  RH WIND       PRES   REMARKS
BROOKINGS      PTSUNNY   86  56  35 W14       29.72S
CHAMBERLAIN    SUNNY     88  62  41 NW8       29.77S
6HR MIN TEMP:  88; 6HR MAX TEMP:  91;

HURON          SUNNY     89  52  28 NW15G25   29.71S
6HR MIN TEMP:  87; 6HR MAX TEMP:  92;

MADISON        FAIR      82  61  47 W12G17    29.74S
MITCHELL       SUNNY     88  60  38 NW12      29.72F
6HR MIN TEMP:  86; 6HR MAX TEMP:  92;

SIOUX FALLS    MOSUNNY   85  59  41 W8        29.72F
6HR MIN TEMP:  83; 6HR MAX TEMP:  89;

WINNER         FAIR      88  65  46 N6        29.79F
YANKTON        SUNNY     88  59  37 SW7       29.73F
$$

MNZ071-072-080-081-089-090-097-098-260100-
SOUTHWEST MINNESOTA

CITY           SKY/WX    TMP DP  RH WIND       PRES   REMARKS
FAIRMONT       MOSUNNY   77  56  48 N26G32    29.74R
JACKSON        LGT RAIN  70  63  78 CALM      29.77R
LUVERNE        CLOUDY    88  50  27 W15       29.73R
MARSHALL       MOSUNNY   78  66  66 SW5       29.69F
6HR MIN TEMP:  69; 6HR MAX TEMP:  89; 6HR PCP:  0.41;

MONTEVIDEO     SUNNY     88  52  29 W9        29.66F
PIPESTONE      MOSUNNY   81  63  54 E3        29.74F
REDWOOD FALLS  PTSUNNY   78  65  63 SE3       29.67F
TRACY          MOSUNNY   80  60  50 CALM      29.71F
WINDOM         MOSUNNY   73  52  46 S5        29.74F
WORTHINGTON    PTSUNNY   76  56  49 NW21      29.77R THUNDER
$$

IAZ001>003-012>014-020>022-031-032-NEZ013-014-SDZ071-260100-
NORTHWEST IOWA

CITY           SKY/WX    TMP DP  RH WIND       PRES   REMARKS
CHEROKEE       MOSUNNY   88  58  36 CALM      29.70F
DENISON        SUNNY     90  59  35 W8        29.73F
ESTHERVILLE    SUNNY     86  61  42 N8        29.71S
ORANGE CITY    SUNNY     88  54  31 NW9       29.73S
SHELDON        SUNNY     90  54  29 W15       29.71S
SIOUX CITY     SUNNY     92  57  30 SE3       29.70F
6HR MIN TEMP:  88; 6HR MAX TEMP:  93;

SPENCER        SUNNY     90  54  29 W20       29.71F
6HR MIN TEMP:  88; 6HR MAX TEMP:  93;

STORM LAKE     SUNNY     90  52  27 W8        29.72F
$$

ABBREVIATIONS USED IN REMARKS
   TC - TEMPERATURE IN CELSIUS
  WCI - WIND CHILL INDEX
   HX - HEAT INDEX
  VSB - VISIBILITY





USA.gov is the U.S. government's official web portal to all federal, state and local government web resources and services.